CAPE
0 0 0 1 42 0 43 0 0 0 0 0 0 1 6 23 51 95 129 135 170 283 451 503 443 449 421 630 603 710 676 966
0 0 0 10 0 17 8 1 0 0 0 0 0 3 44 55 109 285 425 343 385 455 491 611 563 623 624 714 704 768 905 1122
0 0 0 0 0 0 0 0 0 0 0 0 0 0 0 57 95 150 551 432 551 621 557 589 688 771 809 887 816 791 783 836
0 0 0 0 0 0 16 1 0 0 0 0 0 0 0 0 0 0 520 678 663 789 744 727 808 884 962 1035 1060 1094 1082 1067
0 0 0 0 0 0 0 0 0 0 0 0 0 0 0 0 0 0 204 685 849 962 989 1001 1057 1116 1130 1233 1281 1317 1389 1418
0 0 0 0 0 0 0 0 0 0 0 0 0 0 0 0 0 0 92 554 903 1024 1076 1160 1239 1316 1346 1394 1478 1540 1533 1590
0 0 0 0 0 0 0 0 0 0 0 0 18 0 23 88 0 11 113 402 650 883 998 1055 1222 1357 1420 1463 1541 1617 1573 1587
0 0 0 0 0 0 0 0 0 0 0 581 857 773 328 388 458 459 448 534 686 876 986 1032 1101 1271 1389 1467 1524 1551 1544 1628
0 0 0 0 0 0 0 0 0 0 403 826 1011 1041 1292 1435 1415 1508 1646 1575 1412 1300 1179 1152 1153 1199 1305 1434 1598 1564 1455 1127
0 0 0 0 70 245 139 244 341 515 640 1052 968 1319 1455 1302 1055 915 884 701 614 573 775 1022 934 1042 1236 1273 1304 1069 734 587
0 0 0 64 248 222 164 434 666 835 1109 1100 676 388 913 1445 1240 990 711 525 481 336 323 352 440 449 514 521 543 487 475 323
0 0 0 5 282 49 332 104 293 210 253 620 408 35 44 1416 1274 760 497 345 228 128 85 64 46 123 179 160 135 119 72 62
0 0 0 0 188 79 67 58 272 257 233 276 19 74 640 1408 785 402 293 208 127 18 31 14 35 60 50 0 0 0 0 0
0 0 0 2 123 125 84 400 309 267 150 62 33 352 1116 863 374 90 58 66 141 118 86 18 40 0 0 0 0 0 0 0
0 0 0 204 330 110 219 312 433 286 117 141 189 817 1079 643 207 0 0 0 0 1 0 0 0 0 0 0 33 39 0 0
0 0 37 138 80 168 312 454 385 335 251 417 571 1209 921 397 46 0 0 0 0 0 0 0 0 0 0 0 0 98 32 47
0 52 129 174 329 352 572 597 525 662 731 842 1276 1059 596 68 0 0 0 0 0 0 0 1 4 2 0 0 0 82 5 20
7 211 409 370 632 710 611 530 712 557 817 1204 1209 661 146 3 0 0 0 0 0 0 0 0 0 3 13 25 27 32 10 12
147 310 417 669 861 1011 600 795 902 1031 1169 798 764 433 52 0 0 0 1 1 0 0 0 0 0 0 0 9 36 0 0 2
CIN
0 0 0 -11 -100 0 -150 -2 0 0 0 0 0 -26 -242 -224 -244 -170 -174 -235 -235 -300 -333 -325 -309 -289 -245 -209 -178 -137 -106 -98
0 0 0 -42 0 -154 -191 -12 0 0 0 0 0 -32 -116 -110 -104 -119 -140 -212 -228 -297 -347 -350 -330 -300 -290 -231 -199 -188 -150 -109
0 0 0 0 0 0 0 0 0 0 0 0 0 0 0 -94 -107 -125 -112 -151 -181 -269 -330 -360 -369 -348 -312 -279 -235 -213 -216 -198
0 0 0 0 0 0 -138 -9 0 0 0 0 0 0 0 0 0 0 -196 -175 -193 -222 -285 -325 -330 -329 -309 -268 -231 -214 -201 -212
0 0 0 0 0 0 0 0 0 0 0 0 0 0 0 0 0 0 -255 -211 -219 -268 -289 -327 -324 -276 -260 -269 -240 -224 -227 -203
0 0 0 0 0 0 0 0 0 0 0 0 0 0 0 0 0 0 -272 -276 -262 -283 -318 -355 -344 -314 -284 -265 -259 -234 -206 -168
0 0 0 0 0 0 0 0 0 0 0 0 -127 0 -223 -310 0 -242 -276 -293 -300 -285 -329 -354 -365 -349 -331 -299 -289 -273 -244 -162
0 0 0 0 0 0 0 0 0 0 0 -252 -303 -313 -262 -298 -262 -253 -265 -305 -293 -289 -292 -285 -292 -299 -307 -328 -311 -300 -262 -202
0 0 0 0 0 0 0 0 0 0 -133 -237 -201 -210 -225 -242 -255 -246 -270 -297 -305 -330 -335 -328 -349 -359 -352 -329 -302 -227 -192 -239
0 0 0 0 -328 -200 -153 -195 -202 -160 -201 -189 -199 -234 -248 -307 -281 -295 -333 -362 -421 -468 -454 -430 -447 -447 -385 -345 -261 -259 -282 -276
0 0 0 -253 -216 -158 -103 -138 -222 -155 -167 -162 -206 -222 -178 -257 -309 -343 -435 -522 -556 -631 -656 -642 -588 -555 -482 -424 -356 -310 -228 -238
0 0 0 -11 -168 -325 -160 -145 -219 -210 -166 -135 -175 -94 -148 -198 -287 -372 -452 -529 -536 -614 -638 -660 -648 -548 -477 -423 -386 -354 -342 -258
0 0 0 0 -224 -274 -136 -105 -192 -179 -160 -160 -207 -183 -198 -213 -319 -412 -454 -488 -540 -637 -595 -625 -565 -479 -402 0 0 0 0 0
0 0 0 -180 -248 -120 -127 -171 -195 -225 -225 -223 -262 -225 -196 -268 -371 -464 -501 -508 -450 -445 -438 -223 -357 0 0 0 0 0 0 0
0 0 0 -236 -145 -243 -178 -154 -220 -213 -253 -241 -222 -192 -210 -270 -380 -23 0 0 0 -48 0 0 0 0 0 0 -135 -144 0 0
0 0 -320 -293 -336 -260 -265 -202 -239 -233 -230 -216 -176 -173 -228 -329 -481 0 0 0 0 0 0 0 0 0 0 0 0 -20 -12 -6
0 -386 -342 -328 -261 -247 -262 -246 -244 -245 -204 -158 -132 -185 -278 -455 0 0 0 0 0 0 0 0 -33 0 0 0 0 -40 -9 -28
-61 -198 -133 -193 -312 -279 -223 -227 -212 -208 -189 -173 -154 -235 -392 -506 0 0 0 0 0 0 0 0 0 -145 -121 -71 -95 -67 -42 -49
-127 -308 -248 -281 -280 -213 -224 -196 -187 -154 -148 -198 -222 -276 -411 0 0 0 0 0 0 0 0 0 0 0 0 -114 -23 0 0 -69
Wind_Speed
17 22 21 15 18 14 13 12 13 12 10 12 12 16 15 16 16 15 14 14 15 16 17 18 16 15 16 17 18 19 19 16
11 7 15 20 8 17 15 13 8 12 11 11 11 17 17 17 16 16 16 17 17 18 18 18 18 15 14 16 17 18 18 17
14 24 22 18 23 17 14 15 12 14 12 14 14 12 15 15 15 15 16 17 17 17 16 16 17 17 16 15 14 14 15 16
22 10 16 20 20 22 20 18 14 13 13 13 14 15 16 16 12 12 13 14 15 15 15 14 14 14 15 14 14 14 13 11
14 12 11 16 14 15 13 15 14 16 13 14 15 17 18 19 14 11 10 11 12 12 11 11 11 12 12 13 12 12 12 12
6 17 7 11 12 10 14 9 9 12 14 17 18 19 20 21 19 13 11 10 10 11 10 9 8 8 8 8 7 6 7 7
21 20 12 7 8 8 11 15 10 12 13 20 22 22 22 21 19 17 13 10 8 8 7 6 4 4 3 3 2 2 4 5
20 16 14 12 12 9 13 11 14 12 16 19 19 18 19 19 18 19 19 15 12 8 5 4 2 1 1 3 4 4 5 6
9 15 12 14 12 12 14 12 9 12 12 14 17 19 20 20 18 19 21 21 19 17 9 6 7 7 8 9 11 11 11 10
9 13 18 19 17 12 11 14 11 8 10 13 16 18 19 20 20 21 21 22 22 21 21 21 17 15 16 17 15 12 13 14
9 15 18 16 9 8 13 11 8 8 9 12 15 17 18 20 21 21 22 22 22 23 24 24 23 22 20 19 18 16 15 14
11 15 22 19 1 10 8 8 6 8 8 9 14 17 18 19 21 22 23 24 25 25 26 26 24 21 20 20 19 19 18 18
15 20 21 17 3 5 10 11 5 6 9 11 15 18 18 19 22 23 24 26 25 25 25 24 22 21 21 20 20 21 20 22
18 18 20 6 3 7 8 7 8 7 9 12 15 17 18 20 22 24 24 24 23 24 24 23 21 21 22 22 22 22 22 22
23 21 17 4 12 8 5 7 6 7 9 13 15 18 19 21 22 23 22 22 22 23 23 23 23 23 23 23 22 21 21 22
21 22 16 10 10 1 4 5 6 8 10 14 17 17 18 20 21 21 21 21 22 23 23 23 24 24 23 24 24 21 20 21
23 19 13 13 6 2 2 4 6 9 11 14 16 17 17 19 19 19 20 21 21 22 22 23 25 25 24 24 25 24 21 22
25 14 18 8 4 3 3 4 6 9 13 16 15 16 16 17 17 18 19 20 21 22 23 24 25 25 26 25 25 24 24 23
21 10 11 5 5 1 2 3 7 11 12 13 15 15 15 15 16 17 18 19 20 21 23 23 23 24 25 25 23 23 23 21
Wind_Direction
146 203 182 241 210 245 216 202 167 175 189 174 184 169 130 116 110 111 131 113 119 134 143 148 146 143 144 148 156 162 167 164
88 202 276 220 346 210 211 198 173 174 185 176 178 123 110 117 116 97 97 97 103 118 125 137 144 140 139 151 155 159 164 164
105 192 194 239 214 238 233 229 179 125 189 159 200 191 139 135 127 103 99 93 95 109 116 126 141 146 148 149 154 162 167 172
237 344 297 255 241 218 217 216 224 244 207 268 256 266 255 242 172 110 100 96 107 103 102 109 127 141 152 154 157 163 165 158
282 315 333 270 287 288 301 281 119 89 29 284 285 311 308 343 38 59 70 74 79 83 91 98 109 132 147 155 160 160 159 161
288 279 5 311 307 334 299 13 37 39 298 288 295 308 313 332 357 30 36 44 60 66 77 84 107 123 141 146 144 150 160 163
268 283 307 3 350 16 329 312 331 349 0 313 310 326 333 338 8 19 26 28 38 40 61 65 85 125 154 163 166 180 186 195
271 287 295 310 326 338 322 336 322 343 340 336 346 6 3 5 14 17 16 19 21 29 38 44 56 40 320 292 269 261 270 270
273 278 296 300 314 323 322 327 348 338 359 5 8 9 8 11 16 11 8 9 10 10 16 4 353 345 336 328 324 314 310 306
272 272 277 290 298 324 338 321 327 16 22 16 20 23 18 13 10 8 6 4 5 7 4 359 358 350 344 339 337 332 321 314
265 269 282 294 318 330 319 326 348 17 16 18 19 16 11 8 9 10 7 6 4 359 357 355 352 349 347 347 343 338 332 327
271 275 276 294 298 324 339 331 353 6 28 32 6 358 4 7 5 2 0 0 357 356 352 350 353 358 358 357 356 351 345 338
264 276 284 296 286 0 309 327 100 55 20 23 3 1 10 7 4 4 2 360 1 3 6 6 7 10 8 5 358 350 351 344
264 275 283 289 286 293 327 55 91 58 29 18 10 12 6 3 1 0 2 5 12 13 12 15 17 16 10 5 360 354 355 356
259 270 285 236 290 305 69 88 64 44 18 12 8 5 3 0 1 6 10 14 15 14 16 18 16 14 10 11 7 3 1 0
260 267 268 269 289 58 79 55 56 21 14 3 360 4 4 5 10 15 18 18 19 20 21 22 15 12 16 9 4 6 5 3
263 265 264 275 277 142 27 47 30 20 11 2 2 3 7 10 15 18 17 18 20 20 19 14 11 12 16 14 10 14 18 16
263 242 272 240 218 148 102 58 33 18 1 356 3 5 11 15 18 17 18 20 21 22 17 10 13 15 16 17 14 19 18 25
269 227 276 215 177 162 89 29 7 360 1 2 4 8 14 18 18 21 23 23 21 18 14 15 15 14 13 16 18 22 31 38